Voltar ao catálogo

ONEWEB-0164

AtivoComunicaçõesPO
NORAD 48063·PAYLOAD·🇬🇧 United Kingdom

Lançado Mar 25, 2021 de Vostochny Cosmodrome

Loading…

Próximas Passagens (próximas 24 horas)

TLE

AtualizadoSource: CelesTrak SupGP

Época: Sep 14, 2026, 15:01 UTC

1 48063C 21025X   26257.62623102  .00000540  00000+0  14797-2 0  2570
2 48063  87.8916 302.4334 0001995  95.8517   5.4396 13.13466969    16

Acompanhe ONEWEB-0164 em tempo real com AllMySat

Download on the App Store